Location: Ethel Rock
(53.4667°N, 4.5667°W)
Time: 05:32:46
(UTC+00:00)

Nadezhda 4 Rocket - Pass Details

Date: 24 October 2020
Orbit: 950 x 991 km, 82.9° (Epoch: 25 November)

Event Time Altitude Azimuth Distance (km) Brightness Sun altitude
Rises 04:53:06 0° 179° (S) 3,613 6.9 -19.8°
Reaches altitude 10° 04:55:35 10° 176° (S) 2,671 6.3 -19.5°
Maximum altitude 05:01:38 68° 95° (E) 1,025 4.3 -18.6°
Drops below altitude 10° 05:07:44 10° 14° (NNE) 2,701 6.5 -17.7°
Sets 05:10:16 0° 13° (NNE) 3,655 7.2 -17.3°
